Overview Statistics Trail Chart Weather Telemetry Raw packets
 

This is the latest recevied weather packets stored in our database for station/object AF0GV-15. If no packets are shown the sender has not sent any weather packets the latest 10 day(s).

<< 1 2 3 4 5 >>
Time Temp. Humidity Pressure Rain* Wind** Luminosity Snow
1788548141 35° C 51% 1013 hPa 0 mm - - -
1788547192 34.44° C 50% 1013.2 hPa 0 mm - - -
1788546243 34.44° C 52% 1013.2 hPa 0 mm - - -
1788545294 33.89° C 51% 1013.2 hPa 0 mm - - -
1788544345 33.33° C 55% 1013.5 hPa 0 mm - - -
1788543396 33.33° C 56% 1013.6 hPa 0 mm - - -
1788542447 32.78° C 55% 1013.7 hPa 0 mm - - -
1788541498 32.78° C 57% 1013.9 hPa 0 mm - - -
1788540549 32.22° C 58% 1013.9 hPa 0 mm - - -
1788538651 31.67° C 62% 1013.8 hPa 0 mm - - -
1788537702 31.11° C 64% 1014 hPa 0 mm - - -
1788536753 30.56° C 64% 1014.2 hPa 0 mm - - -
1788535804 30.56° C 65% 1014.2 hPa 0 mm - - -
1788533906 29.44° C 68% 1014.2 hPa 0 mm - - -
1788532960 28.89° C 69% 1014.1 hPa 0 mm - - -
1788532009 28.89° C 72% 1014.1 hPa 0 mm - - -
1788531059 27.78° C 73% 1014.1 hPa 0 mm - - -
1788529165 26.67° C 79% 1014.2 hPa 0 mm - - -
1788528212 25.56° C 83% 1014.1 hPa 0 mm - - -
1788527263 23.89° C 87% 1014.1 hPa 0 mm - - -
1788526314 22.78° C 89% 1013.8 hPa 0 mm - - -
1788525365 22.78° C 90% 1013.7 hPa 0 mm - - -
1788524420 22.78° C 89% 1013.4 hPa 0 mm - - -
1788523467 22.78° C 88% 1013.3 hPa 0 mm - - -
1788522518 23.33° C 86% 1013.1 hPa 0 mm - - -

* Rain latest hour (hover to see other rain measurements)
** Current wind speed in m/s (hover to see current wind gust speed)